Regional Weather Roundup
Issued by NWS Cleveland, OH

Home | Current Version | Previous Version | Text Only | Print | Product List | Glossary Off
Versions: 1 2 3 4 5 6 7 8 9 10 11 12 13 14 15 16 17 18 19 20 21 22 23 24 25 26 27 28 29 30 31 32 33 34 35 36 37 38 39 40 41 42 43 44 45 46 47 48 49 50

000
ASUS41 KCLE 020000
RWRCLE
OHIO REGIONAL WEATHER ROUNDUP
NATIONAL WEATHER SERVICE WILMINGTON, OH
800 PM EDT SUN MAY 01 2016

NOTE: "FAIR" INDICATES FEW OR NO CLOUDS BELOW 12,000 FEET WITH NO
SIGNIFICANT WEATHER AND/OR OBSTRUCTIONS TO VISIBILITY.

OHZ001>008-015>018-024>027-034-035-043-044-020100-
   NORTHWEST OHIO

CITY           SKY/WX    TMP DP  RH WIND       PRES   REMARKS
DEFIANCE       CLOUDY    56  50  80 NE9       29.96F
FINDLAY        CLOUDY    54  48  80 NE13      29.95S
TOLEDO EXPRESS CLOUDY    52  49  89 E6        29.98R FOG
TOLEDO EXEC    CLOUDY    53  48  83 E6        29.99S HAZE
LIMA           CLOUDY    55  54  96 NE14      29.94S FOG
$$

OHZ009>014-019>023-028>033-038-089-020100-
   NORTHEAST OHIO

CITY           SKY/WX    TMP DP  RH WIND       PRES   REMARKS
CLE-HOPKINS    CLOUDY    53  48  83 NE8       30.00S
CLE-LAKEFRONT  CLOUDY    51  49  92 NE6       29.98R FOG
CUY CO. ARPT   CLOUDY    54  50  87 NE9       29.99R
LORAIN-ELYRIA  CLOUDY    53  47  79 NE9       29.98S
ASHTABULA      CLOUDY    50  48  93 NE5       29.99R
AKRON-CANTON   FAIR      57  52  83 N13       29.94R
WOOSTER        NOT AVBL
MANSFIELD      CLOUDY    54  53  97 N7        29.96R FOG
YOUNGSTOWN     CLOUDY    57  52  83 N9        29.96R
$$

OHZ042-051>053-060>062-070>072-077>081-020100-
  SOUTHWEST OHIO

CITY           SKY/WX    TMP DP  RH WIND       PRES   REMARKS
CINC-COVINGTON LGT RAIN  65  61  87 S10       29.89F
CINC-LUNKEN    FAIR      64  64 100 S6        29.88F
HAMILTON       TSTM      66  60  81 SE5G21    29.89R
DAYTON         NOT AVBL
WRIGHT-PAT AFB NOT AVBL
DAYTON GENERAL FAIR      74  55  51 CALM      29.87F
WILMINGTON     TSTM      67  56  67 S8        29.88S
$$

OHZ036-037-039>041-045>050-054>059-063>069-073>076-082>088-020100-
  CENTRAL AND SOUTHEAST OHIO

CITY           SKY/WX    TMP DP  RH WIND       PRES   REMARKS
COLUMBUS       MOCLDY    68  57  68 VRB7      29.88F THUNDER
OSU AIRPORT    MOCLDY    68  62  81 NE3       29.88F
BOLTON FIELD   NOT AVBL
RICKENBACK AFB NOT AVBL
NEWARK         FAIR      69  57  65 N3        29.89F
MARION         CLOUDY    55  53  93 NE17      29.95R FOG
LANCASTER      FAIR      70  58  65 NE7       29.89F
ZANESVILLE     FAIR      69  57  65 NE8       29.91S
NEW PHILLY     FAIR      69  57  65 CALM      29.92F
$$




USA.gov is the U.S. government's official web portal to all federal, state and local government web resources and services.